,,,PA_Meas_PMT16A,,PR_Meas_QMR101_102,,RH_Meas_QMH101,,SR_Meas_QMS101,,TA_Meas_QMH101,,GenWind,,GenWind,
date,time,status,PA,status,PR,status,RH,status,SR,status,TA,status,DirAvg,status,SpdAvg,
2009-03-28, 00:00:04,VALID,1005.16,VALID,0,VALID,88.9604,VALID,0,VALID,25.1034,VALID,316,VALID,0.969922,
2009-03-28, 00:01:04,VALID,1005.17,VALID,0,VALID,88.8307,VALID,0,VALID,25.1229,VALID,358,VALID,0.304688,
2009-03-28, 00:02:04,VALID,1005.15,VALID,0,VALID,88.762,VALID,0,VALID,25.1618,VALID,15,VALID,0.294141,
2009-03-28, 00:03:04,VALID,1005.12,VALID,0,VALID,88.7315,VALID,0,VALID,25.1813,VALID,20,VALID,0.0964844,
2009-03-28, 00:04:04,VALID,1005.08,VALID,0,VALID,88.6247,VALID,0.100563,VALID,25.2007,VALID,355,VALID,0.61875,
2009-03-28, 00:05:04,VALID,1005.08,VALID,0,VALID,88.4798,VALID,0,VALID,25.2202,VALID,356,VALID,0.552734,
2009-03-28, 00:06:04,VALID,1005.05,VALID,0,VALID,88.4187,VALID,0,VALID,25.2202,VALID,8,VALID,0.659375,
2009-03-28, 00:07:04,VALID,1005.07,VALID,0,VALID,88.3501,VALID,0,VALID,25.2611,VALID,6,VALID,0.0527344,
2009-03-28, 00:08:04,VALID,1005.02,VALID,0,VALID,88.3043,VALID,0.100563,VALID,25.2806,VALID,5,VALID,0.242578,
2009-03-28, 00:09:04,VALID,1005.04,VALID,0,VALID,88.2433,VALID,0,VALID,25.2786,VALID,350,VALID,0.874219,
2009-03-28, 00:10:04,VALID,1004.99,VALID,0,VALID,88.167,VALID,0,VALID,25.2786,VALID,329,VALID,0.109375,
2009-03-28, 00:11:04,VALID,1004.98,VALID,0,VALID,88.1746,VALID,0,VALID,25.2981,VALID,329,VALID,0.294141,
2009-03-28, 00:12:04,VALID,1004.99,VALID,0,VALID,88.167,VALID,0,VALID,25.3176,VALID,327,VALID,0.110156,
2009-03-28, 00:13:04,VALID,1004.95,VALID,0,VALID,88.1899,VALID,0,VALID,25.3176,VALID,297,VALID,0.166016,
2009-03-28, 00:14:04,VALID,1004.93,VALID,0,VALID,88.1365,VALID,0,VALID,25.339,VALID,341,VALID,0.561719,
2009-03-28, 00:15:04,VALID,1004.86,VALID,0,VALID,88.0373,VALID,0,VALID,25.337,VALID,342,VALID,0.566016,
2009-03-28, 00:16:04,VALID,1004.89,VALID,0,VALID,87.961,VALID,0,VALID,25.337,VALID,346,VALID,0.378516,
2009-03-28, 00:17:04,VALID,1004.87,VALID,0,VALID,87.9076,VALID,0,VALID,25.3993,VALID,345,VALID,0.0613281,
2009-03-28, 00:18:04,VALID,1004.84,VALID,0,VALID,87.9381,VALID,0,VALID,25.337,VALID,345,VALID,0.0367187,
2009-03-28, 00:19:04,VALID,1004.84,VALID,0,VALID,88.022,VALID,0,VALID,25.3584,VALID,345,VALID,0.235938,
2009-03-28, 00:20:04,VALID,1004.83,VALID,0,VALID,88.0678,VALID,0,VALID,25.3584,VALID,345,VALID,0.296484,
2009-03-28, 00:21:04,VALID,1004.82,VALID,0,VALID,88.0602,VALID,0,VALID,25.337,VALID,346,VALID,0.44375,
2009-03-28, 00:22:04,VALID,1004.8,VALID,0,VALID,88.0296,VALID,0,VALID,25.3584,VALID,345,VALID,0.432422,
2009-03-28, 00:23:04,VALID,1004.78,VALID,0,VALID,88.0754,VALID,0,VALID,25.3176,VALID,345,VALID,0.0316406,
2009-03-28, 00:24:04,VALID,1004.83,VALID,0,VALID,88.0068,VALID,0,VALID,25.3195,VALID,345,VALID,0.0195313,
2009-03-28, 00:25:04,VALID,1004.8,VALID,0,VALID,88.1365,VALID,0,VALID,25.3,VALID,357,VALID,0.399609,
2009-03-28, 00:26:04,VALID,1004.79,VALID,0,VALID,88.2433,VALID,0,VALID,25.2786,VALID,348,VALID,0.653516,
2009-03-28, 00:27:04,VALID,1004.76,VALID,0,VALID,88.3119,VALID,0,VALID,25.2592,VALID,341,VALID,0.479297,
2009-03-28, 00:28:04,VALID,1004.75,VALID,0,VALID,88.3043,VALID,0,VALID,25.3,VALID,341,VALID,0.140625,
2009-03-28, 00:29:04,VALID,1004.73,VALID,0,VALID,88.2661,VALID,0,VALID,25.2806,VALID,341,VALID,0.296094,
2009-03-28, 00:30:04,VALID,1004.75,VALID,0,VALID,88.3348,VALID,0,VALID,25.2397,VALID,341,VALID,0.0277344,
2009-03-28, 00:31:04,VALID,1004.71,VALID,0,VALID,88.4569,VALID,0,VALID,25.2202,VALID,341,VALID,0,
2009-03-28, 00:32:04,VALID,1004.72,VALID,0,VALID,88.556,VALID,0,VALID,25.1813,VALID,341,VALID,0.387109,
2009-03-28, 00:33:04,VALID,1004.72,VALID,0,VALID,88.5332,VALID,0,VALID,25.1442,VALID,341,VALID,0.296875,
2009-03-28, 00:34:04,VALID,1004.71,VALID,0,VALID,88.6476,VALID,0,VALID,25.0431,VALID,341,VALID,0.380078,
2009-03-28, 00:35:04,VALID,1004.68,VALID,0,VALID,88.7468,VALID,0,VALID,25.0274,VALID,341,VALID,0.246094,
2009-03-28, 00:36:04,VALID,1004.68,VALID,0,VALID,88.8307,VALID,0,VALID,24.9282,VALID,341,VALID,0.219922,
2009-03-28, 00:37:04,VALID,1004.7,VALID,0,VALID,89.1435,VALID,0,VALID,24.8697,VALID,341,VALID,0.266797,
2009-03-28, 00:38:04,VALID,1004.68,VALID,0,VALID,89.5783,VALID,0,VALID,24.8503,VALID,341,VALID,0.607031,
2009-03-28, 00:39:04,VALID,1004.69,VALID,0,VALID,90.0894,VALID,0,VALID,24.8503,VALID,349,VALID,0.869531,
2009-03-28, 00:40:04,VALID,1004.67,VALID,0,VALID,90.2039,VALID,0,VALID,24.8716,VALID,348,VALID,0.682031,
2009-03-28, 00:41:04,VALID,1004.66,VALID,0,VALID,90.2802,VALID,0,VALID,24.8679,VALID,3,VALID,0.478125,
2009-03-28, 00:42:04,VALID,1004.63,VALID,0,VALID,90.1963,VALID,0,VALID,24.9087,VALID,2,VALID,0.435547,
2009-03-28, 00:43:04,VALID,1004.64,VALID,0,VALID,90.1581,VALID,0,VALID,24.9495,VALID,2,VALID,0.441016,
2009-03-28, 00:44:04,VALID,1004.62,VALID,0,VALID,90.1276,VALID,0.100563,VALID,24.9671,VALID,1,VALID,0.383594,
2009-03-28, 00:45:04,VALID,1004.59,VALID,0,VALID,90.0666,VALID,0,VALID,24.9866,VALID,354,VALID,0.601953,
2009-03-28, 00:46:04,VALID,1004.57,VALID,0,VALID,89.9064,VALID,0,VALID,25.0274,VALID,348,VALID,0.625,
2009-03-28, 00:47:04,VALID,1004.57,VALID,0,VALID,89.8301,VALID,0,VALID,25.0644,VALID,354,VALID,0.584766,
2009-03-28, 00:48:04,VALID,1004.55,VALID,0,VALID,89.708,VALID,0,VALID,25.1053,VALID,350,VALID,0.403125,
2009-03-28, 00:49:04,VALID,1004.55,VALID,0,VALID,89.5249,VALID,0,VALID,25.1248,VALID,350,VALID,0.0921875,
2009-03-28, 00:50:04,VALID,1004.53,VALID,0,VALID,89.4257,VALID,0,VALID,25.1423,VALID,349,VALID,0.614453,
2009-03-28, 00:51:04,VALID,1004.56,VALID,0,VALID,89.2732,VALID,0,VALID,25.1637,VALID,340,VALID,0.251172,
2009-03-28, 00:52:04,VALID,1004.53,VALID,0,VALID,89.3647,VALID,0,VALID,25.1618,VALID,348,VALID,0.723437,
2009-03-28, 00:53:04,VALID,1004.53,VALID,0,VALID,89.235,VALID,0,VALID,25.2027,VALID,346,VALID,0.803125,
2009-03-28, 00:54:04,VALID,1004.52,VALID,0,VALID,89.0595,VALID,0,VALID,25.2416,VALID,354,VALID,0.436719,
2009-03-28, 00:55:04,VALID,1004.53,VALID,0,VALID,88.9375,VALID,0,VALID,25.2416,VALID,354,VALID,0.435937,
2009-03-28, 00:56:04,VALID,1004.54,VALID,0,VALID,88.7849,VALID,0,VALID,25.2416,VALID,354,VALID,0.382031,
2009-03-28, 00:57:04,VALID,1004.51,VALID,0,VALID,88.7315,VALID,0,VALID,25.2202,VALID,354,VALID,0.166406,
2009-03-28, 00:58:04,VALID,1004.52,VALID,0,VALID,88.6857,VALID,0,VALID,25.2202,VALID,354,VALID,0.15,
2009-03-28, 00:59:04,VALID,1004.52,VALID,0,VALID,88.8002,VALID,0.100563,VALID,25.2007,VALID,354,VALID,0.0964844,
2009-03-28, 01:00:04,VALID,1004.54,VALID,0,VALID,88.8612,VALID,0,VALID,25.1813,VALID,354,VALID,0.216016,
2009-03-28, 01:01:04,VALID,1004.52,VALID,0,VALID,88.9299,VALID,0,VALID,25.1813,VALID,345,VALID,0.182812,
2009-03-28, 01:02:04,VALID,1004.48,VALID,0,VALID,88.968,VALID,0.100563,VALID,25.1813,VALID,350,VALID,0.570313,
2009-03-28, 01:03:04,VALID,1004.51,VALID,0,VALID,88.9604,VALID,0,VALID,25.1618,VALID,353,VALID,0.105469,
2009-03-28, 01:04:04,VALID,1004.46,VALID,0,VALID,89.0824,VALID,0,VALID,25.1832,VALID,353,VALID,0.277344,
2009-03-28, 01:05:04,VALID,1004.45,VALID,0,VALID,89.0519,VALID,0,VALID,25.1423,VALID,356,VALID,0.45625,
2009-03-28, 01:06:04,VALID,1004.45,VALID,0,VALID,89.2198,VALID,0,VALID,25.1229,VALID,347,VALID,0.553125,
2009-03-28, 01:07:04,VALID,1004.4,VALID,0,VALID,89.3494,VALID,0,VALID,25.1229,VALID,345,VALID,0.605078,
2009-03-28, 01:08:04,VALID,1004.38,VALID,0,VALID,89.3037,VALID,0,VALID,25.1423,VALID,345,VALID,0.660937,
2009-03-28, 01:09:04,VALID,1004.38,VALID,0,VALID,89.2579,VALID,0.100563,VALID,25.1618,VALID,343,VALID,0.0960938,
2009-03-28, 01:10:04,VALID,1004.33,VALID,0,VALID,89.2198,VALID,0,VALID,25.2027,VALID,355,VALID,0.682031,
2009-03-28, 01:11:04,VALID,1004.34,VALID,0,VALID,89.1358,VALID,0,VALID,25.2221,VALID,350,VALID,0.709766,
2009-03-28, 01:12:04,VALID,1004.32,VALID,0,VALID,89.0519,VALID,0,VALID,25.2202,VALID,345,VALID,0.324219,
2009-03-28, 01:13:04,VALID,1004.34,VALID,0,VALID,89.0367,VALID,0,VALID,25.2007,VALID,351,VALID,0.865625,
2009-03-28, 01:14:04,VALID,1004.33,VALID,0,VALID,89.0519,VALID,0,VALID,25.2416,VALID,350,VALID,0.576172,
2009-03-28, 01:15:04,VALID,1004.32,VALID,0,VALID,88.9756,VALID,0,VALID,25.2416,VALID,350,VALID,0,
2009-03-28, 01:16:04,VALID,1004.36,VALID,0,VALID,88.9604,VALID,0,VALID,25.2221,VALID,350,VALID,0.0183594,
2009-03-28, 01:17:04,VALID,1004.36,VALID,0,VALID,89.0443,VALID,0,VALID,25.2007,VALID,357,VALID,0.138672,
2009-03-28, 01:18:04,VALID,1004.36,VALID,0,VALID,89.0901,VALID,0,VALID,25.2221,VALID,358,VALID,0.354297,
2009-03-28, 01:19:04,VALID,1004.33,VALID,0,VALID,89.0367,VALID,0,VALID,25.2202,VALID,353,VALID,0.339063,
2009-03-28, 01:20:04,VALID,1004.37,VALID,0,VALID,88.9527,VALID,0,VALID,25.2007,VALID,353,VALID,0,
2009-03-28, 01:21:04,VALID,1004.35,VALID,0,VALID,89.029,VALID,0,VALID,25.2221,VALID,353,VALID,0.166016,
2009-03-28, 01:22:04,VALID,1004.35,VALID,0,VALID,89.174,VALID,0,VALID,25.1832,VALID,353,VALID,0.365625,
2009-03-28, 01:23:04,VALID,1004.38,VALID,0,VALID,89.2198,VALID,0,VALID,25.2027,VALID,297,VALID,0.0738281,
2009-03-28, 01:24:04,VALID,1004.38,VALID,0,VALID,89.1816,VALID,0,VALID,25.1618,VALID,308,VALID,0.455859,
2009-03-28, 01:25:04,VALID,1004.36,VALID,0,VALID,89.1892,VALID,0,VALID,25.1832,VALID,318,VALID,0.0839844,
2009-03-28, 01:26:04,VALID,1004.36,VALID,0,VALID,89.3571,VALID,0,VALID,25.1832,VALID,304,VALID,0.644922,
2009-03-28, 01:27:04,VALID,1004.32,VALID,0,VALID,89.296,VALID,0,VALID,25.2027,VALID,290,VALID,0.295703,
2009-03-28, 01:28:04,VALID,1004.33,VALID,0,VALID,89.2884,VALID,0,VALID,25.2221,VALID,349,VALID,0.495313,
2009-03-28, 01:29:04,VALID,1004.29,VALID,0,VALID,89.1816,VALID,0,VALID,25.2416,VALID,353,VALID,0.419141,
2009-03-28, 01:30:04,VALID,1004.3,VALID,0,VALID,89.174,VALID,0,VALID,25.2202,VALID,354,VALID,0.253516,
2009-03-28, 01:31:04,VALID,1004.31,VALID,0,VALID,89.2579,VALID,0,VALID,25.2397,VALID,358,VALID,0.749609,
2009-03-28, 01:32:04,VALID,1004.28,VALID,0,VALID,89.2121,VALID,0,VALID,25.2806,VALID,360,VALID,0.134375,
2009-03-28, 01:33:04,VALID,1004.29,VALID,0,VALID,89.1358,VALID,0,VALID,25.2806,VALID,360,VALID,0.350781,
2009-03-28, 01:34:05,VALID,1004.29,VALID,0,VALID,89.1053,VALID,0,VALID,25.2806,VALID,360,VALID,0.391016,
2009-03-28, 01:35:05,VALID,1004.26,VALID,0,VALID,89.1358,VALID,0,VALID,25.3,VALID,354,VALID,0.974219,
2009-03-28, 01:36:05,VALID,1004.25,VALID,0,VALID,88.968,VALID,0,VALID,25.3195,VALID,1,VALID,0.790625,
2009-03-28, 01:37:05,VALID,1004.27,VALID,0,VALID,88.9451,VALID,0,VALID,25.2786,VALID,347,VALID,0.870313,
2009-03-28, 01:38:05,VALID,1004.25,VALID,0,VALID,88.8765,VALID,0,VALID,25.3,VALID,297,VALID,0.529297,
2009-03-28, 01:39:05,VALID,1004.27,VALID,0,VALID,88.9604,VALID,0,VALID,25.339,VALID,293,VALID,0.863672,
2009-03-28, 01:40:05,VALID,1004.24,VALID,0,VALID,88.8459,VALID,0,VALID,25.3584,VALID,286,VALID,0.249609,
2009-03-28, 01:41:05,VALID,1004.22,VALID,0,VALID,88.6781,VALID,0,VALID,25.3779,VALID,269,VALID,0.298047,
2009-03-28, 01:42:05,VALID,1004.2,VALID,0,VALID,88.6094,VALID,0,VALID,25.3779,VALID,338,VALID,0.510547,
2009-03-28, 01:43:05,VALID,1004.21,VALID,0,VALID,88.5408,VALID,0,VALID,25.4169,VALID,356,VALID,0.678125,
2009-03-28, 01:44:05,VALID,1004.19,VALID,0,VALID,88.4492,VALID,0,VALID,25.4149,VALID,353,VALID,0.743359,
2009-03-28, 01:45:05,VALID,1004.16,VALID,0,VALID,88.2814,VALID,0,VALID,25.4558,VALID,350,VALID,0.652344,
2009-03-28, 01:46:05,VALID,1004.14,VALID,0,VALID,88.2661,VALID,0,VALID,25.4363,VALID,356,VALID,0.599219,
2009-03-28, 01:47:05,VALID,1004.13,VALID,0,VALID,88.1975,VALID,0,VALID,25.4363,VALID,356,VALID,0.550781,
2009-03-28, 01:48:05,VALID,1004.1,VALID,0,VALID,88.2738,VALID,0,VALID,25.4363,VALID,348,VALID,0.639453,
2009-03-28, 01:49:05,VALID,1004.09,VALID,0,VALID,88.3043,VALID,0,VALID,25.4363,VALID,338,VALID,0.193359,
2009-03-28, 01:50:05,VALID,1004.08,VALID,0,VALID,88.2661,VALID,0,VALID,25.4363,VALID,310,VALID,0.432422,
2009-03-28, 01:51:05,VALID,1004.05,VALID,0,VALID,88.2967,VALID,0,VALID,25.4149,VALID,341,VALID,0.458984,
2009-03-28, 01:52:05,VALID,1004.04,VALID,0,VALID,88.3043,VALID,0,VALID,25.4363,VALID,348,VALID,0.301172,
2009-03-28, 01:53:05,VALID,1004.07,VALID,0,VALID,88.3806,VALID,0,VALID,25.4149,VALID,345,VALID,0.757422,
2009-03-28, 01:54:05,VALID,1004.07,VALID,0,VALID,88.3653,VALID,0,VALID,25.4363,VALID,318,VALID,0.271484,
2009-03-28, 01:55:05,VALID,1004.06,VALID,0,VALID,88.2661,VALID,0,VALID,25.4344,VALID,332,VALID,0.285547,
2009-03-28, 01:56:05,VALID,1004.1,VALID,0,VALID,88.3119,VALID,0,VALID,25.4363,VALID,334,VALID,0.193359,
2009-03-28, 01:57:05,VALID,1004.04,VALID,0,VALID,88.3577,VALID,0,VALID,25.3955,VALID,342,VALID,0.811328,
2009-03-28, 01:58:05,VALID,1004.05,VALID,0,VALID,88.3882,VALID,0,VALID,25.4169,VALID,345,VALID,0.259375,
2009-03-28, 01:59:05,VALID,1004.04,VALID,0,VALID,88.434,VALID,0,VALID,25.3955,VALID,344,VALID,0.0894531,
2009-03-28, 02:00:05,VALID,1004.07,VALID,0,VALID,88.3806,VALID,0,VALID,25.3974,VALID,342,VALID,0,
2009-03-28, 02:01:05,VALID,1004.07,VALID,0,VALID,88.3958,VALID,0,VALID,25.3779,VALID,342,VALID,0,
2009-03-28, 02:02:05,VALID,1004.02,VALID,0,VALID,88.6628,VALID,0,VALID,25.3779,VALID,342,VALID,0.540625,
2009-03-28, 02:03:05,VALID,1004.03,VALID,0,VALID,88.6323,VALID,0,VALID,25.376,VALID,350,VALID,0.507031,
2009-03-28, 02:04:05,VALID,1004.02,VALID,0,VALID,88.556,VALID,0,VALID,25.3565,VALID,350,VALID,0,
2009-03-28, 02:05:05,VALID,1004.03,VALID,0,VALID,88.6552,VALID,0,VALID,25.339,VALID,302,VALID,0.749219,
2009-03-28, 02:06:05,VALID,1004.02,VALID,0,VALID,88.6857,VALID,0,VALID,25.3779,VALID,302,VALID,0.449219,
2009-03-28, 02:07:05,VALID,1004.04,VALID,0,VALID,88.5866,VALID,0,VALID,25.3779,VALID,302,VALID,0,
2009-03-28, 02:08:05,VALID,1004.04,VALID,0,VALID,88.5789,VALID,0,VALID,25.3584,VALID,302,VALID,0.0167969,
2009-03-28, 02:09:05,VALID,1004.04,VALID,0,VALID,88.5942,VALID,0,VALID,25.339,VALID,302,VALID,0,
2009-03-28, 02:10:05,VALID,1004.03,VALID,0,VALID,88.701,VALID,0,VALID,25.3,VALID,302,VALID,0.0824219,
2009-03-28, 02:11:05,VALID,1004.01,VALID,0,VALID,88.8383,VALID,0,VALID,25.2592,VALID,302,VALID,0.1875,
2009-03-28, 02:12:05,VALID,1004.01,VALID,0,VALID,88.9299,VALID,0,VALID,25.2397,VALID,330,VALID,0.447266,
2009-03-28, 02:13:05,VALID,1003.97,VALID,0,VALID,88.9527,VALID,0,VALID,25.2416,VALID,350,VALID,0.246094,
2009-03-28, 02:14:05,VALID,1004,VALID,0,VALID,89.0519,VALID,0,VALID,25.2416,VALID,11,VALID,0.386328,
2009-03-28, 02:15:05,VALID,1003.99,VALID,0,VALID,89.0367,VALID,0,VALID,25.2202,VALID,11,VALID,0,
2009-03-28, 02:16:05,VALID,1004,VALID,0,VALID,89.0977,VALID,0,VALID,25.1813,VALID,11,VALID,0.104687,
2009-03-28, 02:17:05,VALID,1003.95,VALID,0,VALID,89.1511,VALID,0,VALID,25.2027,VALID,6,VALID,0.369141,
2009-03-28, 02:18:05,VALID,1003.97,VALID,0,VALID,89.2045,VALID,0,VALID,25.1637,VALID,5,VALID,0.210156,
2009-03-28, 02:19:05,VALID,1003.98,VALID,0,VALID,89.1892,VALID,0,VALID,25.1423,VALID,3,VALID,0.155469,
2009-03-28, 02:20:05,VALID,1003.95,VALID,0,VALID,89.296,VALID,0,VALID,25.1248,VALID,346,VALID,0.18125,
2009-03-28, 02:21:05,VALID,1003.96,VALID,0,VALID,89.3647,VALID,0,VALID,25.1034,VALID,345,VALID,0.2125,
2009-03-28, 02:22:05,VALID,1003.91,VALID,0,VALID,89.4868,VALID,0,VALID,25.0858,VALID,354,VALID,0.649609,
2009-03-28, 02:23:05,VALID,1003.9,VALID,0,VALID,89.6012,VALID,0,VALID,25.045,VALID,350,VALID,0.734766,
2009-03-28, 02:24:05,VALID,1003.89,VALID,0,VALID,89.6775,VALID,0,VALID,25.0663,VALID,347,VALID,0.95625,
2009-03-28, 02:25:05,VALID,1003.88,VALID,0,VALID,89.6165,VALID,0,VALID,25.0644,VALID,317,VALID,0.579297,
2009-03-28, 02:26:05,VALID,1003.88,VALID,0,VALID,89.5554,VALID,0,VALID,25.045,VALID,324,VALID,0.00195313,
2009-03-28, 02:27:05,VALID,1003.85,VALID,0,VALID,89.5783,VALID,0,VALID,25.0663,VALID,338,VALID,0.6375,
2009-03-28, 02:28:05,VALID,1003.82,VALID,0,VALID,89.6241,VALID,0,VALID,25.006,VALID,339,VALID,0.446094,
2009-03-28, 02:29:05,VALID,1003.83,VALID,0,VALID,89.8224,VALID,0,VALID,25.0663,VALID,346,VALID,0.730859,
2009-03-28, 02:30:05,VALID,1003.82,VALID,0,VALID,89.8224,VALID,0,VALID,25.0469,VALID,351,VALID,0.691016,
2009-03-28, 02:31:05,VALID,1003.81,VALID,0,VALID,89.769,VALID,0,VALID,25.0858,VALID,348,VALID,0.871094,
2009-03-28, 02:32:05,VALID,1003.79,VALID,0,VALID,89.6546,VALID,0,VALID,25.1248,VALID,339,VALID,0.429688,
2009-03-28, 02:33:05,VALID,1003.8,VALID,0,VALID,89.5402,VALID,0,VALID,25.0839,VALID,1,VALID,0.315625,
2009-03-28, 02:34:05,VALID,1003.78,VALID,0,VALID,89.5097,VALID,0,VALID,25.1248,VALID,352,VALID,0.611719,
2009-03-28, 02:35:05,VALID,1003.78,VALID,0,VALID,89.4944,VALID,0,VALID,25.1034,VALID,323,VALID,0.479688,
2009-03-28, 02:36:05,VALID,1003.73,VALID,0,VALID,89.4944,VALID,0,VALID,25.1442,VALID,348,VALID,0.600391,
2009-03-28, 02:37:05,VALID,1003.74,VALID,0,VALID,89.4257,VALID,0,VALID,25.1832,VALID,342,VALID,0.785156,
2009-03-28, 02:38:05,VALID,1003.76,VALID,0,VALID,89.3494,VALID,0,VALID,25.1618,VALID,344,VALID,0.804688,
2009-03-28, 02:39:05,VALID,1003.72,VALID,0,VALID,89.3342,VALID,0,VALID,25.2027,VALID,346,VALID,1.07266,
2009-03-28, 02:40:05,VALID,1003.74,VALID,0,VALID,89.235,VALID,0,VALID,25.2221,VALID,343,VALID,0.526563,
2009-03-28, 02:41:05,VALID,1003.73,VALID,0,VALID,89.2198,VALID,0,VALID,25.2007,VALID,356,VALID,0.226563,
2009-03-28, 02:42:05,VALID,1003.71,VALID,0,VALID,89.2503,VALID,0,VALID,25.2221,VALID,329,VALID,0.833984,
2009-03-28, 02:43:05,VALID,1003.71,VALID,0,VALID,89.2198,VALID,0,VALID,25.2416,VALID,9,VALID,0.376563,
2009-03-28, 02:44:05,VALID,1003.69,VALID,0,VALID,89.174,VALID,0,VALID,25.2416,VALID,342,VALID,0.691797,
2009-03-28, 02:45:05,VALID,1003.7,VALID,0,VALID,89.1587,VALID,0,VALID,25.2611,VALID,351,VALID,0.807422,
2009-03-28, 02:46:05,VALID,1003.68,VALID,0,VALID,89.1282,VALID,0,VALID,25.2611,VALID,342,VALID,0.945313,
2009-03-28, 02:47:05,VALID,1003.7,VALID,0,VALID,89.0977,VALID,0,VALID,25.2806,VALID,346,VALID,0.682031,
2009-03-28, 02:48:05,VALID,1003.69,VALID,0,VALID,89.029,VALID,0,VALID,25.2806,VALID,316,VALID,0.798828,
2009-03-28, 02:49:05,VALID,1003.7,VALID,0,VALID,88.968,VALID,0,VALID,25.2397,VALID,359,VALID,0.201172,
2009-03-28, 02:50:05,VALID,1003.68,VALID,0,VALID,89.0901,VALID,0,VALID,25.2611,VALID,13,VALID,0.459766,
2009-03-28, 02:51:05,VALID,1003.66,VALID,0,VALID,89.0748,VALID,0,VALID,25.2611,VALID,11,VALID,0.405469,
2009-03-28, 02:52:05,VALID,1003.65,VALID,0,VALID,89.174,VALID,0,VALID,25.2611,VALID,354,VALID,0.858594,
2009-03-28, 02:53:05,VALID,1003.64,VALID,0,VALID,89.2198,VALID,0,VALID,25.2592,VALID,3,VALID,0.670703,
2009-03-28, 02:54:05,VALID,1003.63,VALID,0,VALID,89.1206,VALID,0,VALID,25.3,VALID,342,VALID,0.280859,
2009-03-28, 02:55:05,VALID,1003.64,VALID,0,VALID,89.1053,VALID,0,VALID,25.3,VALID,358,VALID,0.419141,
2009-03-28, 02:56:05,VALID,1003.63,VALID,0,VALID,89.0214,VALID,0,VALID,25.2786,VALID,353,VALID,0.151953,
2009-03-28, 02:57:05,VALID,1003.64,VALID,0,VALID,89.1511,VALID,0,VALID,25.2592,VALID,353,VALID,0.8875,
2009-03-28, 02:58:05,VALID,1003.6,VALID,0,VALID,89.1435,VALID,0,VALID,25.3,VALID,345,VALID,0.391016,
2009-03-28, 02:59:05,VALID,1003.64,VALID,0,VALID,89.0367,VALID,0,VALID,25.3,VALID,344,VALID,0.114063,
2009-03-28, 03:00:05,VALID,1003.61,VALID,0,VALID,89.1816,VALID,0,VALID,25.2786,VALID,345,VALID,1.26016,
2009-03-28, 03:01:05,VALID,1003.61,VALID,0,VALID,89.1282,VALID,0,VALID,25.3195,VALID,337,VALID,0.438672,
2009-03-28, 03:02:05,VALID,1003.59,VALID,0,VALID,89.0367,VALID,0,VALID,25.339,VALID,352,VALID,0.771094,
2009-03-28, 03:03:05,VALID,1003.57,VALID,0,VALID,88.9299,VALID,0,VALID,25.3176,VALID,346,VALID,0.623828,
2009-03-28, 03:04:05,VALID,1003.58,VALID,0,VALID,88.9375,VALID,0,VALID,25.339,VALID,337,VALID,0.403125,
2009-03-28, 03:05:05,VALID,1003.59,VALID,0,VALID,88.9604,VALID,0,VALID,25.339,VALID,347,VALID,0.539453,
2009-03-28, 03:06:05,VALID,1003.6,VALID,0,VALID,88.8993,VALID,0,VALID,25.337,VALID,328,VALID,0.834375,
2009-03-28, 03:07:05,VALID,1003.58,VALID,0,VALID,88.8078,VALID,0,VALID,25.3565,VALID,345,VALID,0.81875,
2009-03-28, 03:08:05,VALID,1003.6,VALID,0,VALID,88.7468,VALID,0,VALID,25.3779,VALID,342,VALID,0.794141,
2009-03-28, 03:09:05,VALID,1003.58,VALID,0,VALID,88.7468,VALID,0,VALID,25.3974,VALID,302,VALID,0.35,
2009-03-28, 03:10:05,VALID,1003.59,VALID,0,VALID,88.7315,VALID,0,VALID,25.3974,VALID,358,VALID,0.305469,
2009-03-28, 03:11:05,VALID,1003.56,VALID,0,VALID,88.6781,VALID,0,VALID,25.3779,VALID,349,VALID,0.334766,
2009-03-28, 03:12:05,VALID,1003.6,VALID,0,VALID,88.6857,VALID,0,VALID,25.3565,VALID,349,VALID,0.401563,
2009-03-28, 03:13:05,VALID,1003.59,VALID,0,VALID,88.7773,VALID,0.100563,VALID,25.337,VALID,356,VALID,0.625,
2009-03-28, 03:14:05,VALID,1003.58,VALID,0,VALID,88.8078,VALID,0,VALID,25.339,VALID,349,VALID,0.75625,
2009-03-28, 03:15:05,VALID,1003.59,VALID,0,VALID,88.7697,VALID,0,VALID,25.339,VALID,347,VALID,0.31875,
2009-03-28, 03:16:05,VALID,1003.55,VALID,0,VALID,88.8307,VALID,0,VALID,25.339,VALID,351,VALID,0.874609,
2009-03-28, 03:17:05,VALID,1003.56,VALID,0,VALID,88.7544,VALID,0,VALID,25.339,VALID,291,VALID,0.113672,
2009-03-28, 03:18:05,VALID,1003.55,VALID,0,VALID,88.7086,VALID,0,VALID,25.3176,VALID,342,VALID,0.889453,
2009-03-28, 03:19:05,VALID,1003.54,VALID,0,VALID,88.6094,VALID,0,VALID,25.3584,VALID,354,VALID,0.947266,
2009-03-28, 03:20:05,VALID,1003.54,VALID,0,VALID,88.5332,VALID,0,VALID,25.3584,VALID,10,VALID,0.458203,
2009-03-28, 03:21:05,VALID,1003.55,VALID,0,VALID,88.5179,VALID,0,VALID,25.3584,VALID,18,VALID,0.3875,
2009-03-28, 03:22:05,VALID,1003.57,VALID,0,VALID,88.5332,VALID,0,VALID,25.3604,VALID,20,VALID,0,
2009-03-28, 03:23:05,VALID,1003.57,VALID,0,VALID,88.5484,VALID,0,VALID,25.339,VALID,20,VALID,0,
2009-03-28, 03:24:05,VALID,1003.59,VALID,0,VALID,88.5942,VALID,0,VALID,25.2786,VALID,18,VALID,0.0773437,
2009-03-28, 03:25:05,VALID,1003.57,VALID,0,VALID,88.6171,VALID,0,VALID,25.2806,VALID,18,VALID,0,
2009-03-28, 03:26:05,VALID,1003.56,VALID,0,VALID,88.7162,VALID,0,VALID,25.2397,VALID,15,VALID,0.528125,
2009-03-28, 03:27:05,VALID,1003.56,VALID,0,VALID,88.7925,VALID,0,VALID,25.2416,VALID,353,VALID,0.464063,
2009-03-28, 03:28:05,VALID,1003.56,VALID,0,VALID,88.8688,VALID,0,VALID,25.2221,VALID,259,VALID,0.600781,
2009-03-28, 03:29:05,VALID,1003.6,VALID,0,VALID,88.8688,VALID,0,VALID,25.1832,VALID,259,VALID,0.276563,
2009-03-28, 03:30:05,VALID,1003.61,VALID,0,VALID,88.9375,VALID,0,VALID,25.1618,VALID,350,VALID,0.679297,
2009-03-28, 03:31:05,VALID,1003.62,VALID,0,VALID,89.1053,VALID,0,VALID,25.1618,VALID,341,VALID,0.660547,
2009-03-28, 03:32:05,VALID,1003.65,VALID,0,VALID,89.1664,VALID,0,VALID,25.1832,VALID,360,VALID,0.993359,
2009-03-28, 03:33:05,VALID,1003.63,VALID,0,VALID,89.1969,VALID,0,VALID,25.1832,VALID,357,VALID,0.518359,
2009-03-28, 03:34:05,VALID,1003.63,VALID,0,VALID,89.2198,VALID,0,VALID,25.1637,VALID,347,VALID,0.332031,
2009-03-28, 03:35:05,VALID,1003.64,VALID,0,VALID,89.2198,VALID,0,VALID,25.1637,VALID,10,VALID,0.463281,
2009-03-28, 03:36:05,VALID,1003.64,VALID,0,VALID,89.2274,VALID,0,VALID,25.2027,VALID,325,VALID,0.630859,
2009-03-28, 03:37:05,VALID,1003.65,VALID,0,VALID,89.2045,VALID,0,VALID,25.1832,VALID,355,VALID,0.973437,
2009-03-28, 03:38:05,VALID,1003.66,VALID,0,VALID,89.1969,VALID,0,VALID,25.2027,VALID,356,VALID,0.733203,
2009-03-28, 03:39:05,VALID,1003.67,VALID,0,VALID,89.1816,VALID,0,VALID,25.2027,VALID,350,VALID,0.419531,
2009-03-28, 03:40:05,VALID,1003.69,VALID,0,VALID,89.1358,VALID,0,VALID,25.2435,VALID,338,VALID,0.277344,
2009-03-28, 03:41:05,VALID,1003.74,VALID,0,VALID,89.2121,VALID,0,VALID,25.2416,VALID,348,VALID,0.501562,
2009-03-28, 03:42:05,VALID,1003.76,VALID,0,VALID,89.0748,VALID,0,VALID,25.2611,VALID,302,VALID,0.236328,
2009-03-28, 03:43:05,VALID,1003.75,VALID,0,VALID,88.968,VALID,0,VALID,25.2611,VALID,313,VALID,0.414453,
2009-03-28, 03:44:05,VALID,1003.75,VALID,0,VALID,88.9299,VALID,0,VALID,25.2611,VALID,332,VALID,0.515625,
2009-03-28, 03:45:05,VALID,1003.79,VALID,0,VALID,88.8459,VALID,0,VALID,25.2806,VALID,354,VALID,0.147266,